TimeCST,TemperatureF,Dew PointF,Humidity,Sea Level PressureIn,VisibilityMPH,Wind Direction,Wind SpeedMPH,Gust SpeedMPH,PrecipitationIn,Events,Conditions,WindDirDegrees,DateUTC
12:15 AM,31.1,27.9,88,30.11,10.0,SSE,5.8,-,N/A,,Clear,150,2012-11-08 06:15:00
12:35 AM,30.9,27.7,88,30.11,10.0,SSE,6.9,-,N/A,,Clear,160,2012-11-08 06:35:00
12:55 AM,30.7,27.5,88,30.11,10.0,SSE,6.9,-,N/A,,Clear,150,2012-11-08 06:55:00
1:15 AM,30.6,27.5,88,30.10,10.0,SE,6.9,-,N/A,,Clear,140,2012-11-08 07:15:00
1:35 AM,32.0,28.4,87,30.10,10.0,SE,6.9,-,N/A,,Clear,140,2012-11-08 07:35:00
1:55 AM,30.7,27.9,89,30.09,10.0,SE,8.1,-,N/A,,Clear,140,2012-11-08 07:55:00
2:15 AM,31.6,28.9,90,30.09,10.0,SE,8.1,-,N/A,,Clear,140,2012-11-08 08:15:00
2:35 AM,31.5,28.2,88,30.09,10.0,SE,6.9,-,N/A,,Clear,140,2012-11-08 08:35:00
2:55 AM,30.7,27.9,89,30.09,10.0,SSE,6.9,-,N/A,,Clear,150,2012-11-08 08:55:00
3:15 AM,30.7,28.0,90,30.08,10.0,SE,6.9,-,N/A,,Clear,140,2012-11-08 09:15:00
3:35 AM,30.6,27.9,90,30.07,10.0,SSE,8.1,-,N/A,,Clear,150,2012-11-08 09:35:00
3:55 AM,30.9,28.4,90,30.07,10.0,SE,8.1,-,N/A,,Clear,140,2012-11-08 09:55:00
4:15 AM,30.7,28.2,90,30.06,10.0,SSE,6.9,-,N/A,,Clear,150,2012-11-08 10:15:00
4:35 AM,30.2,27.9,91,30.06,10.0,SSE,8.1,-,N/A,,Clear,150,2012-11-08 10:35:00
4:55 AM,30.4,28.2,92,30.06,10.0,SSE,9.2,-,N/A,,Clear,150,2012-11-08 10:55:00
5:15 AM,31.1,28.9,92,30.06,10.0,SSE,9.2,-,N/A,,Clear,150,2012-11-08 11:15:00
5:35 AM,31.1,29.1,92,30.06,10.0,SE,9.2,-,N/A,,Clear,140,2012-11-08 11:35:00
5:55 AM,31.8,29.5,91,30.05,10.0,SSE,9.2,-,N/A,,Clear,150,2012-11-08 11:55:00
6:15 AM,32.0,29.7,91,30.05,10.0,SSE,8.1,-,N/A,,Clear,150,2012-11-08 12:15:00
6:55 AM,31.8,29.3,90,30.04,10.0,SSE,9.2,-,N/A,,Clear,150,2012-11-08 12:55:00
7:15 AM,32.0,29.7,91,30.04,7.0,SSE,10.4,-,N/A,,Clear,150,2012-11-08 13:15:00
7:35 AM,32.5,30.2,91,30.04,10.0,SSE,10.4,-,N/A,,Clear,150,2012-11-08 13:35:00
7:55 AM,33.4,30.7,90,30.05,10.0,SSE,11.5,-,N/A,,Clear,160,2012-11-08 13:55:00
8:15 AM,34.5,31.5,89,30.05,10.0,SSE,10.4,-,N/A,,Clear,150,2012-11-08 14:15:00
8:35 AM,36.1,32.0,85,30.05,10.0,SSE,11.5,-,N/A,,Clear,150,2012-11-08 14:35:00
8:55 AM,37.4,32.4,82,30.05,10.0,SSE,12.7,-,N/A,,Clear,150,2012-11-08 14:55:00
9:15 AM,39.2,33.4,80,30.04,10.0,SSE,13.8,-,N/A,,Clear,160,2012-11-08 15:15:00
9:35 AM,41.0,34.2,77,30.04,7.0,SSE,13.8,-,N/A,,Clear,160,2012-11-08 15:35:00
9:55 AM,43.0,34.9,73,30.04,10.0,SSE,12.7,-,N/A,,Clear,160,2012-11-08 15:55:00
10:15 AM,45.1,35.8,70,30.04,10.0,South,17.3,-,N/A,,Clear,170,2012-11-08 16:15:00
10:35 AM,47.5,36.1,65,30.04,10.0,South,16.1,-,N/A,,Clear,170,2012-11-08 16:35:00
11:15 AM,50.0,36.1,59,30.03,10.0,SSE,16.1,23.0,N/A,,Clear,160,2012-11-08 17:15:00
11:35 AM,51.4,36.1,56,30.02,10.0,SSE,18.4,24.2,N/A,,Clear,160,2012-11-08 17:35:00
12:15 PM,52.9,36.0,53,29.99,10.0,SSE,17.3,-,N/A,,Clear,160,2012-11-08 18:15:00
12:35 PM,53.8,35.8,51,29.97,10.0,SSE,16.1,21.9,N/A,,Clear,160,2012-11-08 18:35:00
1:15 PM,54.9,35.1,47,29.96,10.0,SSE,18.4,23.0,N/A,,Clear,160,2012-11-08 19:15:00
1:35 PM,55.9,35.8,47,29.95,10.0,SSE,16.1,-,N/A,,Clear,160,2012-11-08 19:35:00
1:55 PM,56.7,35.2,45,29.94,10.0,SSE,17.3,20.7,N/A,,Clear,150,2012-11-08 19:55:00
2:15 PM,57.4,35.2,43,29.94,10.0,SSE,17.3,-,N/A,,Clear,150,2012-11-08 20:15:00
2:35 PM,57.6,35.1,43,29.93,10.0,SSE,15.0,-,N/A,,Clear,150,2012-11-08 20:35:00
2:55 PM,57.6,35.4,43,29.93,10.0,SSE,15.0,-,N/A,,Clear,150,2012-11-08 20:55:00
3:15 PM,57.4,35.2,43,29.93,10.0,SSE,17.3,20.7,N/A,,Clear,150,2012-11-08 21:15:00
3:35 PM,57.4,36.5,46,29.94,10.0,SE,16.1,-,N/A,,Clear,140,2012-11-08 21:35:00
3:55 PM,56.7,36.7,47,29.94,10.0,SSE,13.8,-,N/A,,Clear,150,2012-11-08 21:55:00
4:15 PM,55.6,37.0,50,29.94,10.0,SSE,12.7,-,N/A,,Clear,160,2012-11-08 22:15:00
4:35 PM,54.3,36.7,51,29.94,10.0,SSE,11.5,-,N/A,,Clear,150,2012-11-08 22:35:00
4:55 PM,52.2,37.0,56,29.94,10.0,SSE,8.1,-,N/A,,Clear,150,2012-11-08 22:55:00
5:15 PM,49.5,37.0,62,29.95,10.0,SE,5.8,-,N/A,,Clear,140,2012-11-08 23:15:00
5:35 PM,47.5,37.0,67,29.95,10.0,SE,6.9,-,N/A,,Clear,140,2012-11-08 23:35:00
5:55 PM,47.3,36.5,66,29.96,10.0,SE,6.9,-,N/A,,Clear,140,2012-11-08 23:55:00
6:15 PM,45.9,36.1,69,29.96,10.0,SE,4.6,-,N/A,,Clear,130,2012-11-09 00:15:00
6:35 PM,46.2,36.3,68,29.97,10.0,ESE,6.9,-,N/A,,Clear,120,2012-11-09 00:35:00
6:55 PM,46.4,36.1,67,29.97,10.0,SE,8.1,-,N/A,,Clear,130,2012-11-09 00:55:00
7:15 PM,47.5,36.5,66,29.97,10.0,SE,10.4,-,N/A,,Clear,130,2012-11-09 01:15:00
7:35 PM,46.6,36.1,67,29.96,10.0,SE,9.2,-,N/A,,Clear,130,2012-11-09 01:35:00
7:55 PM,46.4,36.1,67,29.96,10.0,SE,10.4,-,N/A,,Clear,130,2012-11-09 01:55:00
8:15 PM,45.5,36.0,69,29.96,10.0,SE,10.4,-,N/A,,Clear,130,2012-11-09 02:15:00
8:35 PM,44.8,35.8,71,29.96,10.0,SE,8.1,-,N/A,,Clear,130,2012-11-09 02:35:00
8:55 PM,43.9,35.8,73,29.97,10.0,SE,8.1,-,N/A,,Clear,130,2012-11-09 02:55:00
9:15 PM,43.0,35.6,75,29.97,10.0,SE,8.1,-,N/A,,Clear,130,2012-11-09 03:15:00
9:35 PM,42.4,35.6,77,29.97,10.0,SE,8.1,-,N/A,,Clear,130,2012-11-09 03:35:00
9:55 PM,41.2,35.4,80,29.97,10.0,SE,8.1,-,N/A,,Clear,140,2012-11-09 03:55:00
10:15 PM,39.7,35.1,83,29.97,10.0,SE,6.9,-,N/A,,Clear,140,2012-11-09 04:15:00
10:35 PM,39.4,35.1,84,29.97,10.0,SE,6.9,-,N/A,,Clear,140,2012-11-09 04:35:00
10:55 PM,39.2,34.9,84,29.97,10.0,SE,5.8,-,N/A,,Clear,140,2012-11-09 04:55:00
11:15 PM,40.3,35.6,83,29.96,10.0,ESE,5.8,-,N/A,,Clear,120,2012-11-09 05:15:00
11:35 PM,39.2,35.2,86,29.96,10.0,SE,4.6,-,N/A,,Clear,130,2012-11-09 05:35:00
11:55 PM,38.3,34.3,86,29.96,10.0,ESE,5.8,-,N/A,,Clear,120,2012-11-09 05:55:00